SCP
-0 -0 -0 -0 -0 -0 -0 0 0 0 0 -0 -0 0 0 0 0 0 0 0 0 0 0 0 0 0 0 0 0 0 0 0 0 0 0 0 0 0 0 0 0 0 0 0 0 0 -0 -0 -0 -0 0 0 -0 0
-0 -0 0 -0 -0 -0 -0 -0 0 0 0 0 0 0 0 0 0 0 0 0 0 0 0 0 0 0 0 0 0 0 0 0 0 0 0 0 0 0 0 0 0 0 0 0 0 0 0 0 0 -0 0 0 -0 0
-0 -0 0 0 -0 -0 -0 -0 -0 0 0 0 0 0 0 0 0 0 0 0 0 0 0 0 0 0 0 0 0 0 0 0 0 0 0 0 0 0 0 0 0 0 0 0 0 0 -0 0 0 0 0 0 0 0
-0 -0 0 0 0 -0 -0 -0 -0 0 0 0 0 0 0 0 0 0 0 0 0 0 0 0 0 0 0 0 0 0 0 0 0 0 0 0 0 0 0 0 0 0 0 0 0 0 0 0 0 0 0 0 0 0
-0 -0 0 0 0 0 0 -0 -0 0 -0 -0 -0 0 0 0 0 0 0 0 0 0 0 0 0 0 0 0 0 0 0 0 0 0 0 0 0 0 0 0 0 0 0 0 0 0 0 0 0 0 0 0 0 0
-0 -0 0 0 0 0 0 0 0 0 0 -0 -0 0 0 0 0 0 0 0 0 0 0 0 0 0 0 0 0 0 0 0 0 0 0 0 0 0 0 0 0 0 0 0 0 0 0 0 0 0 0 0 0 0
-0 -0 -0 -0 0 0 0 0 0 0 0 0 -0 0 0 -0 0 0 0 0 0 0 0 0 0 0 0 0 0 0 0 0 0 0 0 0 0 0 0 0 0 0 0 0 0 0 -0 0 0 0 0 0 -0 0
-0 -0 -0 -0 -0 -0 0 0 0 0 0 0 0 0 0 0 0 0 0 0 0 0 0 0 0 0 0 0 0 0 0 0 0 0 0 0 0 0 0 0 0 0 0 0 0 0 0 0 0 0 0 0 0 0
-0 -0 -0 -0 0 -0 0 0 0 0 0 0 0 0 0 0 0 0 0 0 0 0 0 0 0 0 -0 0 0 0 0 0 0 0 0 0 0 0 0 0 0 0 0 0 0 0 0 0 0 0 0 0 0 0
0 -0 -0 -0 0 -0 -0 0 0 0 0 0 0 0 0 0 0 0 0 0 0 0 0 0 -0 -0 0 0 -0 -0 -0 0 0 0 0 0 0 0 0 0 0 0 0 0 0 0 0 0 0 0 0 0 0 0
-0 -0 -0 -0 0 -0 -0 0 0 0 0 0 0 0 0 0 0 0 0 0 0 0 0 -0 -0 0 0 -0 -0 -0 -0 -0 0 0 0 -0 0 0 0 0 0 0 0 0 0 0 0 0 0 0 0 0 0 0
-0 0 -0 -0 -0 0 0 0 0 0 0 0 0 0 0 0 0 0 0 0 0 0 0 0 0 0 -0 0 -0 -0 -0 -0 0 -0 0 0 0 0 0 0 0 0 0 0 0 0 0 0 0 0 0 0 0 0
-0 0 0 -0 -0 -0 -0 -0 0 0 0 0 0 0 0 0 -0 0 0 0 0 0 0 0 0 0 -0 -0 -0 -0 -0 0 -0 0 0 0 -0 0 0 0 0 0 0 0 0 0 0 0 0 0 0 0 0 0
-0 -0 -0 -0 -0 -0 -0 -0 -0 0 0 0 0 0 0 0 0 0 0 0 0 0 0 0 0 -0 -0 -0 -0 -0 -0 0 0 0 0 0 -0 -0 -0 -0 -0 -0 0 0 0 0 0 0 0 0 0 0 0 0
0 0 -0 -0 -0 -0 0 0 0 0 0 0 0 0 0 0 0 0 0 0 0 0 0 0 0 -0 -0 0 -0 -0 0 0 0 -0 0 0 -0 -0 -0 -0 -0 -0 -0 0 0 0 0 0 0 0 0 0 0 0
0 0 -0 -0 -0 -0 0 0 0 0 0 0 0 0 0 0 0 0 0 0 0 0 0 0 0 0 0 -0 0 0 -0 0 -0 -0 -0 -0 -0 -0 -0 -0 -0 -0 0 0 0 0 0 0 0 0 0 0 0 0
0 0 -0 -0 0 0 -0 0 0 0 0 0 0 0 0 0 0 0 0 0 0 0 0 0 0 0 0 0 0 0 -0 -0 0 -0 0 -0 -0 0 0 0 0 0 0 0 0 -0 -0 -0 -0 0 0 0 0 0
0 0 -0 -0 0 0 0 0 0 0 0 0 0 0 0 0 0 0 0 0 0 0 0 0 0 0 0 0 0 0 0 0 0 -0 -0 -0 -0 -0 0 0 0 0 0 0 -0 -0 -0 0 0 0 0 0 0 0
0 0 0 0 0 -0 0 0 0 0 0 0 0 0 0 0 0 0 0 0 0 0 0 0 0 0 0 0 0 0 0 0 0 0 0 -0 -0 -0 0 -0 -0 0 0 -0 -0 -0 -0 -0 -0 -0 0 0 0 0
0 0 -0 -0 -0 0 0 0 0 0 0 0 0 0 0 0 0 0 0 0 0 0 0 0 0 0 0 -0 0 0 0 0 0 0 -0 -0 -0 -0 -0 -0 0 0 0 0 -0 -0 -0 -0 -0 -0 -0 -0 0 0
0 0 0 0 0 0 -0 0 0 0 0 0 0 0 0 0 0 0 0 0 0 0 0 -0 -0 -0 -0 -0 0 0 0 0 0 -0 0 0 0 0 0 -0 -0 -0 -0 -0 -0 0 -0 -0 -0 -0 -0 -0 -0 0
0 0 0 0 0 0 0 0 0 0 0 0 0 0 0 0 0 0 0 0 0 -0 -0 0 0 0 0 0 0 0 0 0 0 0 0 0 0 0 0 0 0 0 0 -0 -0 -0 -0 -0 -0 -0 -0 -0 -0 -0
0 0 0 -0 0 -0 0 0 0 -0 0 0 0 0 0 0 0 0 0 0 0 0 0 0 0 0 0 0 0 0 0 0 0 0 0 0 0 0 0 -0 -0 -0 0 0 -0 -0 -0 -0 -0 -0 -0 -0 -0 0
-0 0 0 0 -0 0 0 -0 0 0 0 0 0 0 0 0 0 0 0 0 0 0 0 0 0 0 -0 -0 0 0 0 0 0 0 0 0 0 0 0 0 0 0 0 0 0 0 -0 -0 -0 -0 -0 -0 -0 -0
0 -0 0 -0 -0 -0 -0 -0 -0 0 0 0 0 0 0 0 0 0 0 0 0 0 0 0 0 0 0 0 0 0 0 0 0 0 0 0 0 0 0 0 0 -0 0 0 0 0 0 -0 -0 -0 -0 -0 -0 -0
0 0 0 0 -0 0 0 0 0 0 0 0 0 0 0 0 0 0 0 0 0 0 0 0 0 0 0 0 0 0 0 0 0 0 0 0 0 0 0 0 0 0 0 0 0 0 0 0 -0 -0 -0 -0 -0 -0
0 0 0 0 0 0 0 0 0 0 0 0 0 0 0 0 0 0 0 0 0 0 0 0 0 0 0 0 0 0 0 0 0 0 0 0 0 0 0 0 0 0 0 0 0 0 0 0 0 0 0 0 0 0
0 0 0 0 0 0 0 0 0 0 0 0 0 0 0 0 0 0 0 0 0 0 0 0 0 0 0 0 0 0 0 0 0 0 0 0 0 0 0 0 0 0 0 0 0 0 0 0 0 0 0 0 0 0
0 0 0 0 0 0 0 0 0 0 0 0 0 0 0 0 0 0 0 0 0 0 0 0 0 0 0 0 0 0 0 0 0 0 0 0 0 0 0 0 0 0 0 0 0 0 0 0 0 0 0 0 0 0
0 0 0 0 0 0 0 0 0 0 0 0 0 0 0 0 0 0 0 0 0 0 0 0 0 0 0 0 0 0 0 0 0 0 0 0 0 0 0 0 0 0 0 0 0 0 0 0 0 0 0 0 0 0
0 0 0 0 0 0 0 0 0 0 0 0 0 0 0 0 0 0 0 0 0 0 0 0 0 0 0 0 0 0 0 0 0 0 0 0 0 0 0 0 0 0 0 0 0 0 0 0 0 0 0 0 0 0
0 0 0 0 0 0 0 0 0 0 0 0 0 0 0 0 0 0 0 0 0 0 0 0 0 0 0 0 0 0 0 0 0 0 0 0 0 0 0 0 0 0 0 0 0 0 0 0 0 0 0 0 0 0
0 0 0 0 0 0 0 0 0 0 0 0 0 0 0 0 0 0 0 0 0 0 0 0 0 0 0 0 0 0 0 0 0 0 0 0 0 0 0 0 0 0 0 0 0 0 0 0 0 0 0 0 0 0
Wind_Speed_500mb
54 49 54 58 58 60 59 50 48 54 56 70 74 77 71 57 50 48 52 43 37 29 30 22 38 40 24 21 9 18 14 3 5 6 8 8 7 13 8 27 16 20 12 13 14 19 39 71 27 37 44 80 79 62
60 57 56 56 57 56 53 45 38 38 42 57 62 69 63 55 58 63 70 64 69 32 32 39 35 37 30 37 33 34 15 13 20 5 2 5 3 1 17 19 16 20 31 28 29 26 55 45 38 55 80 79 100 77
63 60 58 57 56 53 50 42 31 27 29 42 41 39 37 32 33 40 57 54 66 58 34 27 20 28 27 28 28 18 11 17 17 9 7 6 8 8 12 23 27 21 26 28 42 60 70 76 70 81 82 97 108 111
74 66 59 55 54 52 48 39 34 33 36 39 40 39 37 39 37 36 49 41 41 23 10 3 21 22 29 33 32 33 24 26 24 20 7 8 13 21 21 23 11 21 6 45 54 54 66 85 69 87 98 109 117 106
76 68 65 55 47 48 46 39 36 41 47 43 39 43 34 36 37 42 47 41 31 13 10 12 13 15 11 24 32 28 31 29 23 9 9 10 7 11 12 13 27 11 11 13 29 21 25 26 41 48 64 72 87 109
83 67 61 63 46 46 41 44 49 35 41 35 43 39 39 37 38 33 17 21 21 20 14 6 7 7 6 26 31 34 36 33 22 15 7 14 13 19 7 10 22 34 36 32 21 85 74 91 84 57 62 75 74 71
82 73 65 53 54 44 40 60 44 34 40 45 45 43 44 32 21 23 15 21 21 17 11 6 6 8 5 8 18 34 48 34 31 12 11 9 11 12 7 18 48 55 57 62 46 53 33 21 37 77 73 77 69 66
75 78 62 49 59 40 38 57 41 42 45 42 43 44 36 38 45 49 37 26 22 16 13 6 5 4 9 3 7 8 7 17 25 11 3 7 13 15 8 32 55 60 71 28 51 56 62 60 62 64 53 54 48 49
71 73 65 49 35 41 38 32 34 46 43 38 36 35 25 22 16 27 41 31 27 14 11 8 5 5 23 8 9 7 5 4 5 4 6 10 7 12 12 47 55 59 48 62 74 64 47 48 52 58 57 45 41 32
61 62 59 44 36 25 28 29 28 47 42 35 20 15 11 12 25 17 9 9 11 17 16 5 9 5 17 16 8 10 6 3 2 6 15 8 5 3 29 49 52 60 60 60 60 67 82 77 68 69 61 46 39 34
56 57 54 41 29 28 19 26 26 34 37 16 11 12 21 19 6 7 11 15 16 9 19 12 14 5 14 4 4 6 6 5 2 4 6 4 2 18 53 60 58 54 52 48 39 39 40 43 51 57 54 44 35 27
50 48 49 36 24 19 20 25 20 23 16 14 17 19 8 9 10 14 2 7 10 1 19 6 15 10 13 9 2 6 4 5 7 5 6 4 3 46 58 66 64 58 55 52 45 45 43 41 42 44 44 43 36 28
41 39 44 32 26 14 17 23 21 17 13 10 6 9 18 18 20 11 7 8 7 16 20 26 8 14 11 6 5 5 10 6 1 8 4 0 24 50 62 64 64 57 56 54 53 48 47 46 47 52 50 43 36 34
35 39 37 25 27 15 11 14 18 15 10 16 18 16 9 10 5 6 6 6 8 12 30 32 11 4 8 7 1 6 4 5 7 7 6 4 37 61 60 57 60 64 60 58 57 57 56 55 56 56 56 51 46 46
31 32 31 21 22 21 16 15 18 15 16 16 16 9 6 1 5 5 10 11 8 22 32 15 13 8 5 6 4 2 11 8 6 3 6 30 52 50 54 54 54 55 58 59 56 57 56 56 56 57 58 57 54 51
38 30 36 34 23 20 18 16 16 22 15 14 17 9 4 4 9 11 11 10 19 31 10 8 6 7 9 3 11 5 3 4 2 3 29 42 43 46 49 48 50 49 50 51 50 52 53 54 54 52 52 55 55 55
43 37 28 33 37 24 9 16 20 20 14 11 11 17 10 5 3 10 16 19 32 13 0 1 11 6 3 8 7 2 4 3 17 32 29 27 34 40 45 47 48 48 49 50 50 48 51 50 50 52 59 57 53 52
50 42 30 18 4 27 49 27 16 15 16 15 8 8 12 12 13 11 22 27 17 8 8 4 7 12 5 5 5 5 4 19 16 19 25 24 26 34 39 42 44 47 48 47 47 50 52 56 60 60 54 51 47 46
39 41 32 18 10 12 13 17 16 13 13 8 8 5 4 5 12 20 25 12 21 16 7 5 11 4 3 5 6 10 17 20 26 28 23 19 30 36 37 39 41 43 44 45 47 48 49 50 51 51 52 51 51 49
31 28 37 13 10 12 12 13 13 13 7 6 6 6 3 4 8 11 27 13 13 7 16 8 3 3 4 5 11 14 15 18 24 29 24 21 30 32 33 40 44 45 46 44 43 45 47 47 49 51 51 51 49 48
30 36 35 43 48 26 16 11 14 12 11 6 6 4 3 6 7 12 18 16 14 12 4 8 6 4 4 4 5 7 11 16 18 20 30 39 36 38 38 38 38 39 43 45 47 46 46 49 50 49 48 48 47 45
19 23 31 31 19 15 18 19 11 8 5 6 5 7 9 7 13 18 14 16 9 6 4 3 4 4 3 4 6 9 11 15 18 20 25 31 38 40 42 45 48 49 48 44 42 43 44 45 45 45 46 46 45 44
8 13 14 17 10 14 8 8 4 7 7 8 3 6 6 5 11 11 6 6 5 3 5 6 6 4 4 4 4 5 9 13 18 24 28 32 36 38 38 40 44 48 49 45 47 47 47 47 47 49 50 52 54 52
11 9 11 12 16 5 5 8 8 6 6 8 6 4 7 10 17 5 2 5 5 5 6 5 5 6 6 4 2 1 7 14 20 22 26 35 40 37 40 44 47 50 50 46 42 43 46 50 54 57 60 63 62 61
6 17 10 10 12 8 11 10 12 9 3 2 3 5 5 9 5 3 4 7 8 4 5 6 5 4 4 5 9 16 23 27 29 37 32 34 34 37 39 38 36 42 45 46 46 51 54 57 61 63 64 63 63 63
11 11 7 4 3 7 6 4 1 5 4 2 6 3 4 4 4 8 7 16 10 6 7 7 7 8 9 13 16 19 24 32 36 35 32 32 32 33 35 39 41 39 41 45 53 59 63 64 66 66 65 61 58 58
6 2 5 6 7 12 10 8 7 4 4 6 4 3 5 2 8 8 13 13 11 8 6 3 4 9 13 13 15 25 33 33 31 29 25 22 23 29 27 34 41 43 46 46 48 51 56 58 59 60 61 60 58 57
8 4 4 10 5 6 9 3 7 10 7 9 9 2 11 14 9 9 12 14 13 11 10 12 13 14 11 14 24 30 30 27 25 21 21 22 28 28 33 38 41 43 46 48 48 48 48 50 51 53 57 62 65 60
7 10 8 5 2 5 10 8 11 9 13 14 8 7 9 9 8 12 18 20 19 17 17 19 16 13 14 22 30 31 27 25 24 27 34 38 40 38 40 40 41 42 42 42 41 43 45 46 46 48 50 50 51 51
6 4 5 3 5 6 4 8 5 9 17 18 11 13 19 32 31 29 29 28 27 23 22 20 18 16 20 27 30 26 26 25 26 31 35 39 42 42 42 43 45 47 49 52 53 52 49 50 49 47 47 46 45 45
11 7 4 3 5 4 6 10 15 20 20 19 30 33 32 24 28 25 31 33 35 36 29 23 21 19 24 31 31 27 24 25 30 34 36 38 40 42 43 44 46 48 50 51 53 54 56 56 55 55 53 51 49 49
6 6 8 2 3 5 9 5 6 7 8 9 10 12 10 11 14 13 24 26 26 27 24 24 22 20 25 28 25 23 23 25 28 33 36 37 39 42 45 46 48 49 49 50 51 52 54 55 55 55 56 54 52 50
4 4 3 1 1 2 3 5 5 6 9 8 8 8 10 10 17 15 22 30 24 22 20 18 21 22 25 23 21 20 21 24 26 29 32 35 38 41 43 45 47 49 49 50 50 52 54 55 56 56 55 54 53 51
Wind_Direction_500mb
24 25 19 18 21 23 25 35 48 68 104 110 111 108 109 123 136 128 101 116 119 108 141 131 135 142 130 140 133 162 100 351 54 110 135 205 161 214 188 229 210 197 180 198 230 236 264 254 272 217 239 244 265 271
23 23 23 22 22 22 27 34 45 62 81 114 115 113 118 116 123 126 107 121 127 111 132 140 146 176 179 172 138 167 166 156 164 135 171 123 231 247 217 247 181 243 214 229 211 227 242 245 230 239 249 249 259 251
24 20 24 23 20 22 28 39 54 73 79 106 124 130 138 131 117 126 116 112 108 110 108 130 153 171 175 174 180 136 184 168 180 174 162 201 220 138 219 245 243 250 234 239 254 254 260 264 254 245 248 255 253 256
18 23 21 22 19 19 26 50 57 79 100 118 117 121 112 111 102 115 116 104 109 104 102 147 168 178 198 203 209 213 203 193 217 220 174 212 223 201 241 251 250 254 199 240 250 255 264 261 268 251 251 252 256 257
16 15 15 14 16 17 27 68 80 91 104 106 118 115 109 112 111 115 112 100 90 97 142 137 144 187 189 198 199 201 209 203 196 179 207 223 240 238 263 290 257 26 348 269 261 6 314 288 267 276 305 284 269 257
15 15 14 17 18 21 36 83 86 99 121 124 115 119 116 112 116 108 93 90 97 83 102 69 54 16 255 223 222 231 229 231 211 196 200 225 226 193 224 239 32 350 324 318 289 306 303 286 293 302 303 296 281 275
17 15 15 23 21 16 41 83 95 106 105 105 108 116 108 80 75 79 91 114 104 90 80 47 5 50 31 221 235 240 242 235 224 213 221 219 53 14 313 247 348 334 323 312 311 331 312 327 309 313 308 300 292 271
13 16 15 30 37 32 42 86 92 110 106 108 109 101 90 81 81 75 86 112 110 76 70 81 283 117 17 267 268 216 207 206 204 219 62 42 37 29 60 334 331 330 328 319 329 322 297 294 303 306 312 307 304 277
7 11 17 19 41 52 39 90 112 105 103 103 101 95 74 57 57 87 90 86 69 84 106 76 111 266 353 0 310 320 253 252 154 61 68 73 28 40 316 330 330 331 328 314 324 326 313 324 327 326 323 330 323 306
7 9 14 21 31 61 50 54 131 120 107 115 97 64 49 48 101 92 48 41 41 35 51 81 337 283 1 347 314 350 267 268 118 67 97 67 100 302 331 332 329 333 332 333 330 333 339 339 341 334 332 332 324 326
6 8 15 23 41 62 61 68 102 142 121 65 53 64 109 121 77 52 54 41 348 35 16 9 27 345 23 15 285 333 303 281 48 59 94 78 31 347 337 342 348 346 345 343 339 335 337 335 336 337 338 345 349 343
2 5 10 27 40 62 71 63 59 80 77 80 103 99 84 53 60 74 358 348 42 128 344 11 331 328 312 324 349 306 286 333 65 29 70 58 17 339 341 346 352 353 353 354 1 358 360 0 359 357 360 360 360 358
6 9 9 25 36 63 73 65 63 70 87 75 91 74 14 352 46 58 357 339 20 1 13 351 330 344 319 287 302 19 24 11 277 48 66 66 329 339 344 348 352 0 1 4 8 14 16 16 23 21 19 21 17 19
15 13 14 33 43 68 70 44 46 54 46 51 37 31 58 354 42 174 191 206 320 314 334 335 277 286 302 360 322 55 277 14 67 39 343 359 341 339 346 353 354 358 4 6 9 15 17 20 26 31 33 30 32 39
17 25 25 52 53 63 49 41 37 68 58 60 41 52 58 219 269 299 314 312 329 311 327 326 280 253 318 59 36 21 29 60 34 17 318 330 333 341 348 354 357 1 5 9 12 15 20 23 27 32 35 38 43 49
26 37 41 46 49 48 51 56 72 71 62 58 54 80 38 40 346 360 342 334 337 336 314 250 264 49 29 74 49 50 65 25 345 279 312 328 337 345 350 357 2 7 10 11 15 19 23 27 29 32 35 37 39 41
25 30 34 44 45 41 41 65 49 54 58 56 56 45 55 57 318 327 331 330 330 325 294 163 51 217 306 46 40 13 145 239 311 319 330 336 340 348 354 360 4 9 13 15 19 23 27 30 33 35 35 33 32 35
21 18 14 21 54 55 63 52 73 68 66 68 86 48 53 33 349 7 347 350 1 22 7 122 113 45 91 90 302 241 282 312 325 335 341 343 351 356 358 359 7 10 11 13 16 19 22 25 29 30 29 30 32 36
21 17 11 22 75 68 58 46 48 87 71 88 81 68 71 36 19 12 8 26 39 54 78 74 62 87 247 240 262 316 324 326 326 342 356 1 360 359 359 3 7 12 14 14 15 17 18 19 20 20 22 23 24 24
33 31 40 67 75 74 75 55 56 82 94 95 55 40 65 22 3 20 29 49 49 46 43 46 169 208 201 293 301 314 325 330 337 352 11 18 0 6 7 7 9 8 8 9 12 11 13 16 17 17 16 14 12 13
47 52 57 68 59 65 79 67 62 76 106 95 105 68 51 25 20 30 26 40 54 39 43 44 49 47 35 5 4 355 350 348 348 344 341 352 7 6 9 9 9 12 9 7 8 12 11 12 11 10 10 9 8 7
47 50 47 40 54 66 64 43 80 86 82 83 55 36 44 31 9 6 2 48 71 44 99 121 87 77 58 23 5 10 11 8 4 356 351 348 349 355 358 354 351 353 359 360 359 359 0 1 0 359 358 358 358 357
16 35 48 38 71 52 71 38 77 46 80 357 35 53 14 7 359 356 71 85 124 141 153 152 143 130 130 98 78 44 20 4 352 345 340 338 336 336 332 337 337 335 334 339 336 337 338 341 342 340 340 339 338 337
37 62 40 48 42 89 66 48 48 51 67 34 41 12 330 319 338 62 136 168 163 184 169 154 158 165 167 175 179 282 318 319 322 324 320 317 321 322 322 325 325 325 325 325 320 314 315 320 324 325 325 325 325 323
77 11 34 9 39 63 39 12 351 45 72 305 68 340 310 339 43 40 207 197 168 154 159 155 166 184 217 273 306 317 319 322 324 323 330 326 325 320 321 323 330 329 327 327 321 318 317 317 316 317 317 318 317 317
73 4 52 181 343 97 187 98 106 182 144 16 232 302 342 81 80 236 226 179 180 179 180 193 214 241 269 292 310 321 327 326 327 333 337 335 329 328 332 333 335 335 331 326 322 321 320 321 321 322 322 322 322 321
86 272 106 107 102 120 86 94 114 115 140 188 226 51 63 75 247 247 176 183 186 176 156 156 286 308 308 313 328 331 329 331 336 340 346 347 344 341 340 339 337 334 331 328 325 321 320 320 319 319 317 316 317 318
86 115 157 162 131 152 130 104 149 198 217 170 134 185 178 195 232 171 179 182 180 191 221 252 276 297 310 324 328 331 333 342 344 354 2 357 356 351 346 342 338 335 334 333 331 328 325 323 322 322 319 317 317 317
92 117 132 44 119 209 220 180 208 189 184 182 166 230 243 238 237 214 206 207 215 235 253 275 286 285 304 326 334 337 340 344 345 350 358 359 359 355 349 347 345 342 340 339 339 336 334 333 328 320 319 318 317 316
123 128 110 151 171 242 229 210 221 213 208 221 248 267 268 270 268 249 237 237 243 249 257 271 273 279 310 328 335 337 339 343 346 351 354 356 353 351 349 347 348 348 349 349 347 347 345 342 340 338 337 336 335 331
131 136 126 195 241 247 253 258 261 261 259 257 250 253 260 280 275 257 241 239 238 242 253 262 263 280 311 323 330 336 336 340 343 345 350 352 351 349 348 348 349 351 352 351 349 348 346 346 345 343 343 341 340 337
138 137 135 173 254 273 283 249 264 260 255 254 256 238 261 258 254 234 227 222 224 234 239 243 254 279 306 317 321 325 327 331 337 338 341 347 349 348 346 345 346 347 348 349 350 351 349 348 347 345 343 342 341 338
118 156 175 211 276 257 257 287 269 288 256 261 257 248 241 251 251 229 207 198 205 216 227 238 254 283 303 310 312 317 321 324 329 331 334 342 347 347 347 346 345 344 344 344 346 348 349 349 349 347 346 343 342 340
Wind_Speed_850mb
54 49 54 58 58 60 59 50 48 54 56 70 74 77 71 57 50 48 52 43 37 29 30 22 38 40 24 21 9 18 14 3 5 6 8 8 7 13 8 27 16 20 12 13 14 19 39 71 27 37 44 80 79 62
60 57 56 56 57 56 53 45 38 38 42 57 62 69 63 55 58 63 70 64 69 32 32 39 35 37 30 37 33 34 15 13 20 5 2 5 3 1 17 19 16 20 31 28 29 26 55 45 38 55 80 79 100 77
63 60 58 57 56 53 50 42 31 27 29 42 41 39 37 32 33 40 57 54 66 58 34 27 20 28 27 28 28 18 11 17 17 9 7 6 8 8 12 23 27 21 26 28 42 60 70 76 70 81 82 97 108 111
74 66 59 55 54 52 48 39 34 33 36 39 40 39 37 39 37 36 49 41 41 23 10 3 21 22 29 33 32 33 24 26 24 20 7 8 13 21 21 23 11 21 6 45 54 54 66 85 69 87 98 109 117 106
76 68 65 55 47 48 46 39 36 41 47 43 39 43 34 36 37 42 47 41 31 13 10 12 13 15 11 24 32 28 31 29 23 9 9 10 7 11 12 13 27 11 11 13 29 21 25 26 41 48 64 72 87 109
83 67 61 63 46 46 41 44 49 35 41 35 43 39 39 37 38 33 17 21 21 20 14 6 7 7 6 26 31 34 36 33 22 15 7 14 13 19 7 10 22 34 36 32 21 85 74 91 84 57 62 75 74 71
82 73 65 53 54 44 40 60 44 34 40 45 45 43 44 32 21 23 15 21 21 17 11 6 6 8 5 8 18 34 48 34 31 12 11 9 11 12 7 18 48 55 57 62 46 53 33 21 37 77 73 77 69 66
75 78 62 49 59 40 38 57 41 42 45 42 43 44 36 38 45 49 37 26 22 16 13 6 5 4 9 3 7 8 7 17 25 11 3 7 13 15 8 32 55 60 71 28 51 56 62 60 62 64 53 54 48 49
71 73 65 49 35 41 38 32 34 46 43 38 36 35 25 22 16 27 41 31 27 14 11 8 5 5 23 8 9 7 5 4 5 4 6 10 7 12 12 47 55 59 48 62 74 64 47 48 52 58 57 45 41 32
61 62 59 44 36 25 28 29 28 47 42 35 20 15 11 12 25 17 9 9 11 17 16 5 9 5 17 16 8 10 6 3 2 6 15 8 5 3 29 49 52 60 60 60 60 67 82 77 68 69 61 46 39 34
56 57 54 41 29 28 19 26 26 34 37 16 11 12 21 19 6 7 11 15 16 9 19 12 14 5 14 4 4 6 6 5 2 4 6 4 2 18 53 60 58 54 52 48 39 39 40 43 51 57 54 44 35 27
50 48 49 36 24 19 20 25 20 23 16 14 17 19 8 9 10 14 2 7 10 1 19 6 15 10 13 9 2 6 4 5 7 5 6 4 3 46 58 66 64 58 55 52 45 45 43 41 42 44 44 43 36 28
41 39 44 32 26 14 17 23 21 17 13 10 6 9 18 18 20 11 7 8 7 16 20 26 8 14 11 6 5 5 10 6 1 8 4 0 24 50 62 64 64 57 56 54 53 48 47 46 47 52 50 43 36 34
35 39 37 25 27 15 11 14 18 15 10 16 18 16 9 10 5 6 6 6 8 12 30 32 11 4 8 7 1 6 4 5 7 7 6 4 37 61 60 57 60 64 60 58 57 57 56 55 56 56 56 51 46 46
31 32 31 21 22 21 16 15 18 15 16 16 16 9 6 1 5 5 10 11 8 22 32 15 13 8 5 6 4 2 11 8 6 3 6 30 52 50 54 54 54 55 58 59 56 57 56 56 56 57 58 57 54 51
38 30 36 34 23 20 18 16 16 22 15 14 17 9 4 4 9 11 11 10 19 31 10 8 6 7 9 3 11 5 3 4 2 3 29 42 43 46 49 48 50 49 50 51 50 52 53 54 54 52 52 55 55 55
43 37 28 33 37 24 9 16 20 20 14 11 11 17 10 5 3 10 16 19 32 13 0 1 11 6 3 8 7 2 4 3 17 32 29 27 34 40 45 47 48 48 49 50 50 48 51 50 50 52 59 57 53 52
50 42 30 18 4 27 49 27 16 15 16 15 8 8 12 12 13 11 22 27 17 8 8 4 7 12 5 5 5 5 4 19 16 19 25 24 26 34 39 42 44 47 48 47 47 50 52 56 60 60 54 51 47 46
39 41 32 18 10 12 13 17 16 13 13 8 8 5 4 5 12 20 25 12 21 16 7 5 11 4 3 5 6 10 17 20 26 28 23 19 30 36 37 39 41 43 44 45 47 48 49 50 51 51 52 51 51 49
31 28 37 13 10 12 12 13 13 13 7 6 6 6 3 4 8 11 27 13 13 7 16 8 3 3 4 5 11 14 15 18 24 29 24 21 30 32 33 40 44 45 46 44 43 45 47 47 49 51 51 51 49 48
30 36 35 43 48 26 16 11 14 12 11 6 6 4 3 6 7 12 18 16 14 12 4 8 6 4 4 4 5 7 11 16 18 20 30 39 36 38 38 38 38 39 43 45 47 46 46 49 50 49 48 48 47 45
19 23 31 31 19 15 18 19 11 8 5 6 5 7 9 7 13 18 14 16 9 6 4 3 4 4 3 4 6 9 11 15 18 20 25 31 38 40 42 45 48 49 48 44 42 43 44 45 45 45 46 46 45 44
8 13 14 17 10 14 8 8 4 7 7 8 3 6 6 5 11 11 6 6 5 3 5 6 6 4 4 4 4 5 9 13 18 24 28 32 36 38 38 40 44 48 49 45 47 47 47 47 47 49 50 52 54 52
11 9 11 12 16 5 5 8 8 6 6 8 6 4 7 10 17 5 2 5 5 5 6 5 5 6 6 4 2 1 7 14 20 22 26 35 40 37 40 44 47 50 50 46 42 43 46 50 54 57 60 63 62 61
6 17 10 10 12 8 11 10 12 9 3 2 3 5 5 9 5 3 4 7 8 4 5 6 5 4 4 5 9 16 23 27 29 37 32 34 34 37 39 38 36 42 45 46 46 51 54 57 61 63 64 63 63 63
11 11 7 4 3 7 6 4 1 5 4 2 6 3 4 4 4 8 7 16 10 6 7 7 7 8 9 13 16 19 24 32 36 35 32 32 32 33 35 39 41 39 41 45 53 59 63 64 66 66 65 61 58 58
6 2 5 6 7 12 10 8 7 4 4 6 4 3 5 2 8 8 13 13 11 8 6 3 4 9 13 13 15 25 33 33 31 29 25 22 23 29 27 34 41 43 46 46 48 51 56 58 59 60 61 60 58 57
8 4 4 10 5 6 9 3 7 10 7 9 9 2 11 14 9 9 12 14 13 11 10 12 13 14 11 14 24 30 30 27 25 21 21 22 28 28 33 38 41 43 46 48 48 48 48 50 51 53 57 62 65 60
7 10 8 5 2 5 10 8 11 9 13 14 8 7 9 9 8 12 18 20 19 17 17 19 16 13 14 22 30 31 27 25 24 27 34 38 40 38 40 40 41 42 42 42 41 43 45 46 46 48 50 50 51 51
6 4 5 3 5 6 4 8 5 9 17 18 11 13 19 32 31 29 29 28 27 23 22 20 18 16 20 27 30 26 26 25 26 31 35 39 42 42 42 43 45 47 49 52 53 52 49 50 49 47 47 46 45 45
11 7 4 3 5 4 6 10 15 20 20 19 30 33 32 24 28 25 31 33 35 36 29 23 21 19 24 31 31 27 24 25 30 34 36 38 40 42 43 44 46 48 50 51 53 54 56 56 55 55 53 51 49 49
6 6 8 2 3 5 9 5 6 7 8 9 10 12 10 11 14 13 24 26 26 27 24 24 22 20 25 28 25 23 23 25 28 33 36 37 39 42 45 46 48 49 49 50 51 52 54 55 55 55 56 54 52 50
4 4 3 1 1 2 3 5 5 6 9 8 8 8 10 10 17 15 22 30 24 22 20 18 21 22 25 23 21 20 21 24 26 29 32 35 38 41 43 45 47 49 49 50 50 52 54 55 56 56 55 54 53 51
Wind_Direction_850mb
24 25 19 18 21 23 25 35 48 68 104 110 111 108 109 123 136 128 101 116 119 108 141 131 135 142 130 140 133 162 100 351 54 110 135 205 161 214 188 229 210 197 180 198 230 236 264 254 272 217 239 244 265 271
23 23 23 22 22 22 27 34 45 62 81 114 115 113 118 116 123 126 107 121 127 111 132 140 146 176 179 172 138 167 166 156 164 135 171 123 231 247 217 247 181 243 214 229 211 227 242 245 230 239 249 249 259 251
24 20 24 23 20 22 28 39 54 73 79 106 124 130 138 131 117 126 116 112 108 110 108 130 153 171 175 174 180 136 184 168 180 174 162 201 220 138 219 245 243 250 234 239 254 254 260 264 254 245 248 255 253 256
18 23 21 22 19 19 26 50 57 79 100 118 117 121 112 111 102 115 116 104 109 104 102 147 168 178 198 203 209 213 203 193 217 220 174 212 223 201 241 251 250 254 199 240 250 255 264 261 268 251 251 252 256 257
16 15 15 14 16 17 27 68 80 91 104 106 118 115 109 112 111 115 112 100 90 97 142 137 144 187 189 198 199 201 209 203 196 179 207 223 240 238 263 290 257 26 348 269 261 6 314 288 267 276 305 284 269 257
15 15 14 17 18 21 36 83 86 99 121 124 115 119 116 112 116 108 93 90 97 83 102 69 54 16 255 223 222 231 229 231 211 196 200 225 226 193 224 239 32 350 324 318 289 306 303 286 293 302 303 296 281 275
17 15 15 23 21 16 41 83 95 106 105 105 108 116 108 80 75 79 91 114 104 90 80 47 5 50 31 221 235 240 242 235 224 213 221 219 53 14 313 247 348 334 323 312 311 331 312 327 309 313 308 300 292 271
13 16 15 30 37 32 42 86 92 110 106 108 109 101 90 81 81 75 86 112 110 76 70 81 283 117 17 267 268 216 207 206 204 219 62 42 37 29 60 334 331 330 328 319 329 322 297 294 303 306 312 307 304 277
7 11 17 19 41 52 39 90 112 105 103 103 101 95 74 57 57 87 90 86 69 84 106 76 111 266 353 0 310 320 253 252 154 61 68 73 28 40 316 330 330 331 328 314 324 326 313 324 327 326 323 330 323 306
7 9 14 21 31 61 50 54 131 120 107 115 97 64 49 48 101 92 48 41 41 35 51 81 337 283 1 347 314 350 267 268 118 67 97 67 100 302 331 332 329 333 332 333 330 333 339 339 341 334 332 332 324 326
6 8 15 23 41 62 61 68 102 142 121 65 53 64 109 121 77 52 54 41 348 35 16 9 27 345 23 15 285 333 303 281 48 59 94 78 31 347 337 342 348 346 345 343 339 335 337 335 336 337 338 345 349 343
2 5 10 27 40 62 71 63 59 80 77 80 103 99 84 53 60 74 358 348 42 128 344 11 331 328 312 324 349 306 286 333 65 29 70 58 17 339 341 346 352 353 353 354 1 358 360 0 359 357 360 360 360 358
6 9 9 25 36 63 73 65 63 70 87 75 91 74 14 352 46 58 357 339 20 1 13 351 330 344 319 287 302 19 24 11 277 48 66 66 329 339 344 348 352 0 1 4 8 14 16 16 23 21 19 21 17 19
15 13 14 33 43 68 70 44 46 54 46 51 37 31 58 354 42 174 191 206 320 314 334 335 277 286 302 360 322 55 277 14 67 39 343 359 341 339 346 353 354 358 4 6 9 15 17 20 26 31 33 30 32 39
17 25 25 52 53 63 49 41 37 68 58 60 41 52 58 219 269 299 314 312 329 311 327 326 280 253 318 59 36 21 29 60 34 17 318 330 333 341 348 354 357 1 5 9 12 15 20 23 27 32 35 38 43 49
26 37 41 46 49 48 51 56 72 71 62 58 54 80 38 40 346 360 342 334 337 336 314 250 264 49 29 74 49 50 65 25 345 279 312 328 337 345 350 357 2 7 10 11 15 19 23 27 29 32 35 37 39 41
25 30 34 44 45 41 41 65 49 54 58 56 56 45 55 57 318 327 331 330 330 325 294 163 51 217 306 46 40 13 145 239 311 319 330 336 340 348 354 360 4 9 13 15 19 23 27 30 33 35 35 33 32 35
21 18 14 21 54 55 63 52 73 68 66 68 86 48 53 33 349 7 347 350 1 22 7 122 113 45 91 90 302 241 282 312 325 335 341 343 351 356 358 359 7 10 11 13 16 19 22 25 29 30 29 30 32 36
21 17 11 22 75 68 58 46 48 87 71 88 81 68 71 36 19 12 8 26 39 54 78 74 62 87 247 240 262 316 324 326 326 342 356 1 360 359 359 3 7 12 14 14 15 17 18 19 20 20 22 23 24 24
33 31 40 67 75 74 75 55 56 82 94 95 55 40 65 22 3 20 29 49 49 46 43 46 169 208 201 293 301 314 325 330 337 352 11 18 0 6 7 7 9 8 8 9 12 11 13 16 17 17 16 14 12 13
47 52 57 68 59 65 79 67 62 76 106 95 105 68 51 25 20 30 26 40 54 39 43 44 49 47 35 5 4 355 350 348 348 344 341 352 7 6 9 9 9 12 9 7 8 12 11 12 11 10 10 9 8 7
47 50 47 40 54 66 64 43 80 86 82 83 55 36 44 31 9 6 2 48 71 44 99 121 87 77 58 23 5 10 11 8 4 356 351 348 349 355 358 354 351 353 359 360 359 359 0 1 0 359 358 358 358 357
16 35 48 38 71 52 71 38 77 46 80 357 35 53 14 7 359 356 71 85 124 141 153 152 143 130 130 98 78 44 20 4 352 345 340 338 336 336 332 337 337 335 334 339 336 337 338 341 342 340 340 339 338 337
37 62 40 48 42 89 66 48 48 51 67 34 41 12 330 319 338 62 136 168 163 184 169 154 158 165 167 175 179 282 318 319 322 324 320 317 321 322 322 325 325 325 325 325 320 314 315 320 324 325 325 325 325 323
77 11 34 9 39 63 39 12 351 45 72 305 68 340 310 339 43 40 207 197 168 154 159 155 166 184 217 273 306 317 319 322 324 323 330 326 325 320 321 323 330 329 327 327 321 318 317 317 316 317 317 318 317 317
73 4 52 181 343 97 187 98 106 182 144 16 232 302 342 81 80 236 226 179 180 179 180 193 214 241 269 292 310 321 327 326 327 333 337 335 329 328 332 333 335 335 331 326 322 321 320 321 321 322 322 322 322 321
86 272 106 107 102 120 86 94 114 115 140 188 226 51 63 75 247 247 176 183 186 176 156 156 286 308 308 313 328 331 329 331 336 340 346 347 344 341 340 339 337 334 331 328 325 321 320 320 319 319 317 316 317 318
86 115 157 162 131 152 130 104 149 198 217 170 134 185 178 195 232 171 179 182 180 191 221 252 276 297 310 324 328 331 333 342 344 354 2 357 356 351 346 342 338 335 334 333 331 328 325 323 322 322 319 317 317 317
92 117 132 44 119 209 220 180 208 189 184 182 166 230 243 238 237 214 206 207 215 235 253 275 286 285 304 326 334 337 340 344 345 350 358 359 359 355 349 347 345 342 340 339 339 336 334 333 328 320 319 318 317 316
123 128 110 151 171 242 229 210 221 213 208 221 248 267 268 270 268 249 237 237 243 249 257 271 273 279 310 328 335 337 339 343 346 351 354 356 353 351 349 347 348 348 349 349 347 347 345 342 340 338 337 336 335 331
131 136 126 195 241 247 253 258 261 261 259 257 250 253 260 280 275 257 241 239 238 242 253 262 263 280 311 323 330 336 336 340 343 345 350 352 351 349 348 348 349 351 352 351 349 348 346 346 345 343 343 341 340 337
138 137 135 173 254 273 283 249 264 260 255 254 256 238 261 258 254 234 227 222 224 234 239 243 254 279 306 317 321 325 327 331 337 338 341 347 349 348 346 345 346 347 348 349 350 351 349 348 347 345 343 342 341 338
118 156 175 211 276 257 257 287 269 288 256 261 257 248 241 251 251 229 207 198 205 216 227 238 254 283 303 310 312 317 321 324 329 331 334 342 347 347 347 346 345 344 344 344 346 348 349 349 349 347 346 343 342 340